Havre-Saint-Pierre, Quebec

9:30 PM EDT on March 29, 2017 (GMT -0400)
Havre Saint-Pierre

Weather History for CYGV - March, 2014

Change the Weather History Date:

Tuesday, March 18, 2014

  Actual Average Record
Temperature  
Mean Temperature 15 °F -  
Max Temperature 24 °F 33 °F 44 °F (2012)
Min Temperature 6 °F 17 °F -7 °F (2008)
Degree Days  
Heating Degree Days 50    
Moisture  
Dew Point 9 °F    
Average Humidity 70    
Maximum Humidity 79    
Minimum Humidity 54    
Precipitation  
Precipitation 0.00 in - - ()
Sea Level Pressure  
Sea Level Pressure 29.95 in    
Wind  
Wind Speed 14 mph ()    
Max Wind Speed 23 mph    
Max Gust Speed 31 mph    
Visibility 9.0 miles    
Events Snow    
Averages and records for this station are not official NWS values.
T = Trace of Precipitation, MM = Missing Value Source: Averaged Metar Reports

Daily Weather History Graph

Daily Weather History Graph

Search for Another Location

Airport or City:

Trip Planner

Search our weather history database for the weather conditions in past years. The results will help you decide how hot, cold, wet, or windy it might be!

Date:

Astronomy

Mar. 18, 2014 Rise Set
Actual Time 6:21 AM EDT 6:24 PM EDT
Civil Twilight 5:49 AM EDT 6:56 PM EDT
Nautical Twilight 5:11 AM EDT 7:34 PM EDT
Astronomical Twilight 4:31 AM EDT 8:14 PM EDT
Moon 8:53 PM EDT (3/18) 6:55 AM EDT (3/18)
Length of Visible Light 13h 07m
Length of Day
12h 02m
Waning Gibbous, 96% of the Moon is Illuminated
Mar 18
Waning Gibbous
Mar 23
Last Quarter
Mar 30
New
Apr 7
First Quarter
Apr 15
Full

Hourly Weather History & Observations

Time (EDT) Temp. Windchill Dew Point Humidity Pressure Visibility Wind Dir Wind Speed Gust Speed Precip Events Conditions
12:00 AM 10.4 °F -7.7 °F 3.2 °F 73% 29.73 in 9.0 mi West 18.4 mph - N/A Snow Light Snow
12:29 AM 10.4 °F -7.7 °F 3.2 °F 73% 29.74 in 9.0 mi West 18.4 mph - N/A   Overcast
12:39 AM 10.4 °F -7.2 °F 3.2 °F 73% 29.75 in 9.0 mi West 17.3 mph - N/A Snow Light Snow
1:00 AM 10.4 °F -7.2 °F 3.2 °F 73% 29.75 in 9.0 mi West 17.3 mph - N/A   Overcast
2:00 AM 10.4 °F -7.2 °F 3.2 °F 73% 29.76 in 9.0 mi West 17.3 mph - N/A   Overcast
3:00 AM 10.4 °F -7.2 °F 3.2 °F 73% 29.78 in 9.0 mi West 17.3 mph 23.0 mph N/A   Overcast
4:00 AM 8.6 °F -7.7 °F 3.2 °F 79% 29.79 in 9.0 mi West 13.8 mph - N/A   Scattered Clouds
5:00 AM 6.8 °F -9.3 °F 1.4 °F 79% 29.81 in 9.0 mi WNW 12.7 mph - N/A   Clear
6:00 AM 6.8 °F -10.0 °F 1.4 °F 79% 29.85 in 9.0 mi WNW 13.8 mph - N/A   Mostly Cloudy
7:00 AM 8.6 °F -6.3 °F 3.2 °F 79% 29.88 in 9.0 mi West 11.5 mph - N/A   Scattered Clouds
8:00 AM 12.2 °F -3.1 °F 5.0 °F 73% 29.91 in 9.0 mi West 13.8 mph 19.6 mph N/A   Clear
9:00 AM 14.0 °F -2.0 °F 6.8 °F 73% 29.93 in 9.0 mi West 16.1 mph - N/A   Partly Cloudy
10:00 AM 17.6 °F 3.2 °F 6.8 °F 63% 29.94 in 9.0 mi West 15.0 mph - N/A   Clear
11:00 AM 19.4 °F 4.1 °F 8.6 °F 63% 29.94 in 9.0 mi West 18.4 mph - N/A   Clear
12:00 PM 23.0 °F 10.1 °F 8.6 °F 54% 29.95 in 9.0 mi WNW 15.0 mph - N/A   Clear
1:00 PM 24.8 °F 10.7 °F 10.4 °F 54% 29.96 in 9.0 mi West 19.6 mph - N/A   Clear
1:23 PM 24.8 °F 11.5 °F 12.2 °F 59% 29.96 in 9.0 mi West 17.3 mph - N/A Snow Light Snow
1:40 PM 24.8 °F 11.9 °F 12.2 °F 59% 29.97 in 9.0 mi West 16.1 mph 21.9 mph N/A   Clear
2:00 PM 24.8 °F 11.1 °F 12.2 °F 59% 29.97 in 9.0 mi West 18.4 mph - N/A   Partly Cloudy
2:50 PM 24.8 °F 10.0 °F 17.6 °F 74% 29.99 in 9.0 mi West 21.9 mph 27.6 mph N/A Snow Light Snow
3:00 PM 24.8 °F 10.0 °F 17.6 °F 74% 30.00 in 9.0 mi West 21.9 mph 31.1 mph N/A Snow Light Snow
3:08 PM 24.8 °F 10.0 °F 17.6 °F 74% 30.00 in 9.0 mi WSW 21.9 mph 28.8 mph N/A   Clear
4:00 PM 24.8 °F 9.6 °F 17.6 °F 74% 30.03 in 9.0 mi West 23.0 mph - N/A   Clear
5:00 PM 24.8 °F 10.7 °F 17.6 °F 74% 30.06 in 9.0 mi West 19.6 mph 27.6 mph N/A   Partly Cloudy
6:00 PM 23.0 °F 11.7 °F 15.8 °F 74% 30.09 in 9.0 mi West 11.5 mph - N/A   Mostly Cloudy
7:00 PM 21.2 °F 14.9 °F 12.2 °F 68% 30.13 in 9.0 mi North 4.6 mph - N/A   Clear
8:00 PM 19.4 °F 12.8 °F 10.4 °F 68% 30.17 in 9.0 mi NW 4.6 mph - N/A   Mostly Cloudy
9:00 PM 19.4 °F 12.8 °F 10.4 °F 68% 30.19 in 9.0 mi NNW 4.6 mph - N/A   Overcast
10:00 PM 19.4 °F 14.3 °F 12.2 °F 74% 30.21 in 9.0 mi NNW 3.5 mph - N/A   Overcast
11:00 PM 17.6 °F 10.7 °F 12.2 °F 79% 30.22 in 9.0 mi NW 4.6 mph - N/A   Overcast